Regional Weather Roundup
Issued by NWS

Home | Current Version | Previous Version | Graphics & Text | Print | Product List | Glossary On
Versions: 1 2 3 4 5 6 7 8 9 10 11 12 13 14 15 16 17 18 19 20 21 22 23 24 25 26 27 28 29 30 31 32 33 34 35 36 37 38 39 40 41 42 43 44 45 46 47 48 49 50
391
ASUS45 KBOU 261310
RWRCO

WEATHER ROUNDUP FOR COLORADO
NATIONAL WEATHER SERVICE DENVER/BOULDER CO
700 AM MDT MON SEP 26 2016

NOTE: "FAIR" INDICATES FEW OR NO CLOUDS BELOW 12000 FEET WITH NO
SIGNIFICANT WEATHER AND/OR OBSTRUCTIONS TO VISIBILITY.

COZ001>005-013-030-031-261400-
...NORTHWEST COLORADO...

CITY           SKY/WX    TMP DP  RH WIND       PRES   REMARKS
CRAIG          FAIR      31  28  89 CALM      30.51R
HAYDEN         FAIR      36  28  75 E9        30.50S
MEEKER         FAIR      33  31  92 VRB3      30.51R
MOUNT WERNER   NOT AVBL
STEAMBOAT SPGS FAIR      30  29  96 CALM      30.52R
WALDEN           N/A     23  19  86 NE3       30.58R
$$

COZ006>008-011-261400-
...WEST CENTRAL VALLEYS...

CITY           SKY/WX    TMP DP  RH WIND       PRES   REMARKS
GRAND JUNCTION FAIR      47  37  68 E12       30.43R
MONTROSE       FAIR      39  34  82 S6        30.50R
EAGLE          FAIR      32  28  86 CALM      30.58R
RIFLE          FAIR      39  36  89 SE3       30.48R
DELTA          NOT AVBL
NUCLA          FAIR      41  34  75 E6        30.51R
$$

COZ017>023-064>068-261400-
...SOUTHWEST COLORADO...

CITY           SKY/WX    TMP DP  RH WIND       PRES   REMARKS
DURANGO        FAIR      37  32  82 VRB5      30.52R
CORTEZ         FAIR      38  34  85 CALM      30.47R
PAGOSA SPRINGS FAIR      36  33  90 CALM      30.57R
TELLURIDE      FAIR      41  32  72 SE6       30.59R
WOLF CREEK PAS FAIR      32  28  86 MISG      30.74R
$$

COZ009-010-012-014-032>034-037-058>063-261400-
...CENTRAL COLORADO...

CITY           SKY/WX    TMP DP  RH WIND       PRES   REMARKS
ASPEN          FAIR      31  28  89 S6        30.54S WCI  25
BUENA VISTA    FAIR      30  24  77 NW3       30.58R
COPPER MTN     FAIR      41  14  33 CALM      30.70R
BERTHOUD PASS  FAIR      32  21  64 N7        30.71S WCI  26
COTTONWOOD PAS FAIR      41  28  60 CALM      30.62S
GUNNISON       FAIR      27  25  93 CALM      30.60R
KREMMLING      FAIR      27  21  80 CALM      30.59R
LEADVILLE      FAIR      24  20  84 NE5       30.61S WCI  18
MONARCH PASS   FAIR      34  27  75 SW9       30.81R WCI  26
SALIDA         FAIR      34  27  76 CALM      30.64S
SUNLIGHT       FAIR      41  28  60 E3        30.68R
WILKERSON PASS FAIR      37  19  48 N5        30.69S
$$

COZ069>075-261400-
...SAN LUIS VALLEY/SANGRE DE CRISTO MOUNTAINS...

CITY           SKY/WX    TMP DP  RH WIND       PRES   REMARKS
ALAMOSA        FAIR      27  24  89 S3        30.55R
LA VETA PASS   FAIR      39  32  75 MISG      30.62R
SAGUACHE       NOT AVBL
$$

COZ035-036-038>040-261400-
...NORTHERN COLORADO FRONT RANGE...

CITY           SKY/WX    TMP DP  RH WIND       PRES   REMARKS
DENVER INTL AP FAIR      43  30  60 SW8       30.41S
DMNS CITY PARK NOT AVBL
AURORA         CLEAR     42  31  65 S10       30.43R
FRONT RANGE AP CLEAR     48  32  53 SW10      30.42S
ERIE MUNI ARPT FAIR      39  33  78 CALM      30.41S
BOULDER MUN AP FAIR      43  34  70 NW3       30.41R
CENTENNIAL     FAIR      42  30  62 S3        30.43R
BROOMFIELD     CLEAR     46  32  57 W6        30.42R
FORT COLLINS   FAIR      43  37  81 N3        30.41S
LONGMONT       FAIR      39  33  78 CALM      30.42S
$$

COZ041-046-047-076>085-087-088-261400-
...PIKES PEAK/PALMER DIVIDE AND SOUTHERN FOOTHILLS...

CITY           SKY/WX    TMP DP  RH WIND       PRES   REMARKS
COLO. SPRINGS  FAIR      39  28  64 N9        30.47S
A. F. ACADEMY  FAIR      33  27  80 N13       30.47S WCI  23
SCHRIEVER AFB  NOT AVBL
ELLICOTT       NOT AVBL
FALCON         FAIR      37  28  72 NW6       30.48S
FORT CARSON    FAIR      40  30  68 NW7       30.44S
LIMON          FAIR      30  25  81 N7        30.43S WCI  23
MONUMENT HILL  FAIR      37  28  70 SW12      30.48S
TRINIDAD       FAIR      44  31  60 W9        30.46R
$$

COZ042>045-048>051-090-091-261400-
...NORTHEAST COLORADO...

CITY           SKY/WX    TMP DP  RH WIND       PRES   REMARKS
GREELEY ARPT   FAIR      37  34  87 CALM      30.41S
AKRON          FAIR      45  31  58 SW13      30.38S
BURLINGTON     FAIR      40  34  79 SW8       30.39F
WRAY           NOT AVBL
STERLING       FAIR      34  32  93 W3        30.38S
HOLYOKE        FAIR      37  36  93 W3        30.38S
FORT MORGAN    FAIR      35  29  79 W8        30.40R WCI  29
$$

COZ086-089-092>099-261400-
...SOUTHEAST COLORADO...

CITY           SKY/WX    TMP DP  RH WIND       PRES   REMARKS
PUEBLO         FAIR      40  29  64 W5        30.42S
LA JUNTA       FAIR      43  30  60 SW6       30.41R HAZE
LAMAR          FAIR      35  29  78 SW7       30.39S WCI  29
SPRINGFIELD    NOT AVBL
$$




USA.gov is the U.S. government's official web portal to all federal, state and local government web resources and services.